EDT,Max TemperatureF,Mean TemperatureF,Min TemperatureF,Max Dew PointF,MeanDew PointF,Min DewpointF,Max Humidity, Mean Humidity, Min Humidity, Max Sea Level PressureIn, Mean Sea Level PressureIn, Min Sea Level PressureIn, Max VisibilityMiles, Mean VisibilityMiles, Min VisibilityMiles, Max Wind SpeedMPH, Mean Wind SpeedMPH, Max Gust SpeedMPH,PrecipitationIn, CloudCover, Events, WindDirDegrees
2011-10-1,85,78,70,68,59,52,84,57,39,29.96,29.87,29.79,10,10,10,17,8,23,0.00,0,,4
2011-10-2,82,71,60,54,49,46,64,47,33,30.04,29.99,29.95,10,10,10,14,7,21,0.00,0,,18
2011-10-3,87,75,62,64,58,49,73,58,45,30.09,30.05,30.02,10,10,10,13,7,23,0.00,0,,27
2011-10-4,88,78,67,63,59,54,87,58,34,30.14,30.08,30.04,10,10,10,15,8,31,0.00,0,,55
2011-10-5,87,78,68,63,62,60,78,62,43,30.11,30.06,30.01,10,10,10,18,10,77,0.00,0,,64
2011-10-6,87,78,68,68,64,63,84,69,43,30.08,30.05,30.00,10,10,10,23,9,30,T,2,,54
2011-10-7,89,80,70,68,66,65,90,72,46,30.10,30.06,30.02,10,10,10,25,11,37,0.01,1,,59
2011-10-8,82,76,70,68,67,65,90,79,58,30.06,30.00,29.94,10,10,6,32,17,49,0.13,5,Rain,63
2011-10-9,80,75,70,72,69,67,97,87,74,29.95,29.88,29.81,10,8,2,24,11,31,0.76,7,Rain,49
2011-10-10,82,76,69,72,70,68,97,82,69,29.83,29.79,29.75,10,10,10,9,3,28,0.00,3,,234
2011-10-11,85,79,73,74,71,69,94,79,61,29.85,29.80,29.75,10,10,10,13,4,,0.02,3,,256
2011-10-12,86,80,73,73,71,69,93,78,61,29.86,29.84,29.80,10,10,10,12,4,22,0.00,2,,259
2011-10-13,83,78,73,73,71,70,93,80,69,29.83,29.79,29.74,10,10,10,9,5,24,0.03,1,Rain,217
2011-10-14,88,78,68,72,65,57,93,66,37,29.97,29.88,29.81,10,10,10,15,6,26,0.00,0,,357
2011-10-15,84,77,69,65,62,55,84,65,40,30.07,30.00,29.95,10,10,10,20,9,25,0.00,0,,59
2011-10-16,88,80,71,68,65,63,79,65,43,30.07,30.01,29.96,10,10,10,25,12,32,0.00,0,,70
2011-10-17,82,78,73,71,69,66,93,77,65,29.98,29.90,29.84,10,10,9,20,10,28,T,4,Rain,94
2011-10-18,81,78,74,77,72,69,94,87,79,29.83,29.68,29.55,10,10,5,26,14,33,0.22,6,Rain,130
2011-10-19,82,76,70,77,69,52,91,76,49,29.88,29.64,29.52,10,9,1,28,18,36,0.24,6,Rain,263
2011-10-20,73,65,57,55,52,50,86,61,47,30.09,30.00,29.89,10,10,10,22,9,40,0.00,5,,13
2011-10-21,74,64,54,54,50,46,86,66,44,30.14,30.09,30.05,10,10,10,16,7,33,0.00,1,,43
2011-10-22,75,64,53,54,49,43,83,60,35,30.08,30.02,29.96,10,10,10,20,7,21,0.00,0,,17
2011-10-23,81,71,60,57,54,52,78,62,42,30.05,30.00,29.96,10,10,10,15,8,29,0.00,2,,23
2011-10-24,79,68,57,61,57,54,93,69,45,30.13,30.06,30.01,10,10,10,16,6,24,0.00,0,,4
2011-10-25,84,71,57,59,57,55,93,66,40,30.16,30.10,30.05,10,10,10,18,8,26,0.00,0,,56
2011-10-26,85,74,63,65,61,56,87,71,37,30.08,30.01,29.95,10,10,10,15,7,30,0.00,1,,40
2011-10-27,86,74,61,70,65,59,93,77,44,29.97,29.92,29.87,10,10,10,13,5,26,0.00,0,,62
2011-10-28,76,74,71,73,70,65,93,90,74,29.94,29.89,29.84,10,9,6,13,8,32,0.20,5,Rain,72
2011-10-29,80,75,69,72,69,62,93,86,67,29.98,29.86,29.79,10,9,2,18,9,21,0.03,7,Rain,26
2011-10-30,81,70,59,64,58,51,87,69,54,30.06,30.01,29.98,10,10,10,24,14,33,T,6,Rain,58
2011-10-31,80,73,66,67,64,58,93,78,54,30.07,30.00,29.95,10,10,2,18,10,29,0.16,6,Rain,37